星链-31498 (STARLINK-31498 )

导读 | 星芒AI

STARLINK-31498 是 SpaceX Starlink 卫星互联网项目中的一颗低轨卫星,属于 Starlink 群体部署计划的一部分。该卫星由 SpaceX 制造并发射,旨在为全球用户提供高速、低延迟的宽带互联网服务。它运行在约 550 公里的近地轨道上,采用可展开的太阳能电池板供电,并具备自动避障功能。Starlink 项目致力于构建覆盖全球的卫星网络,尤其服务于偏远和网络基础设施不足的地区。

基本信息
目录编号:
59189
目录名称:
STARLINK-31498
国际标识:
2024-045M
轨道中心:
EARTH
卫星名称:
星链-31498
卫星全名:
星链-31498 (STARLINK-31498 )
卫星状态:
在轨 (已飞行650 天)
发射日期:
2024-03-10 UTC
国别 :
美国 (US)
星等 :
--
轨道信息
数据来源 国际轨道数据 AOE轨道数据
星历时间 2025-12-20T03:46:41+0800
4小时前
查看轨道信息
2025-12-20T00:00:00+0800
8小时前
查看轨道信息
半长轴 6861.192km 6861.182km
偏心率 0.000132 0.0001662
轨道倾角 43.001° 43.001°
近地点辐角 271.741° 276.263°
升交点赤经 183.864° 184.756°
平近点角 88.329° 297.119°
近地点 482.149km 481.904km
远地点 483.961km 484.186km
周期 94.267分钟 94.267分钟
每日圈数 15.275783 15.275814
详细信息
固有亮度:
5
最大亮度:
0.3
卫星平台:
Starlink v2.0 mini
覆盖范围:
全球
运营商:
太空探索技术公司
运营商所在国:
美国
制造商(研发单位):
太空探索技术公司
制造商所在国:
美国
使用方式:
暂无
卫星简介
星链(Starlink)计划是由太空探索技术公司(SpaceX)提出的一个巨型低轨卫星互联网星座项目,计划在2019年至2024年间在太空搭建由约1.2万颗卫星组成的“星链”网络,其中1584颗将部署在地球上空550千米处的近地轨道,并从2020年开始工作。该卫星仍在工作。
2D轨道图
3D轨道图
轨道高度分析图
轨道倾角分析图
轨道综合分析图
查看轨道综合分析图